OPS 4682 DEB, 38438

Orbit data source: Space-Track

OPS 4682 DEB, 38438 is space debris in LEO originally from a launch on Sat, 03 Apr 1965 UTC launched from the Air Force Western Test Range (AFWTR). Debris objects in space refer to the collection of defunct objects orbiting the Earth. Examples of debris include non-operational satellites, rocket bodies, and fragments generated from explosions, collisions, or faulty payload assembly.

Loading next visibility...
Identifier
38438, 1965-027ET
Orbit
LEO
Country
Flag of USUS
Related business
Manufacturer
Unknown
Mission
Spacecraft
Bus & Motor
Unknown
Mass
Unknown
Launch date (UTC)
1965-04-03 (61 years ago)
Launch vehicle
Unknown
Launch site
Air Force Western Test Range (AFWTR)
Object type
Payload
Rocket body
Debris
Shape & HBR
Unknown shape, 0.1 m
Radar Cross Section
Small (<0.1 m²)

Expand to show TLE details & history
Last TLE update: 4 days ago

TLE from 4 days ago
0 OPS 4682 DEB
1 38438U 65027ET  25300.41817046 -.00000640  00000-0 -23635-2 0  9990
2 38438  90.2431   0.5626 0032381 156.1359 204.1269 12.93217264630957
Epoch: 2025-10-27T10:02Z
TLE epoch observation values (Epoch: 2025-10-27T10:02:09.927Z)
Latitude
-0.00001°
Longitude
174.00094°
Altitude
1,314.327 km
Speed
7.189 km/s
True Right ascension
00h 02m 15s
True Declination
0° 00' 00"
Sunlit
Object was in full shadow at epoch
Visualization orbit readout
Latitude
Unknown
Longitude
Unknown
Altitude
Unknown
Speed
Unknown
Apparent Right ascension
Unknown
Apparent Declination
Unknown
Sunlit
N/A
Visualization observer readout
Local Sidereal Time
07:22:38
Azimuth
Unknown
Elevation
Unknown
Doppler factor
Unknown
Orbital elements
Apogee altitude
1,310.732 km
Perigee altitude
1,261.098 km
Semi-major axis
7,664.052 km
Eccentricity
0.00324
Inclination
90.2431°
RAAN
0.5626°
Arg. of periapsis
156.1359°
True anomaly
203.97578°
Mean anomaly
204.1269°
Eccentric anomaly
204.05129°
Mean motion
3.23486 °/min
Orbital period
111.29 mins
BSTAR
-0.0023635
Loading maneuver chart data...
Computing Atmospheric mass density...
Loading historical data...
Loading historical data...
Loading historical data...
Loading historical data...
Loading historical data...
Loading historical data...
Loading historical data...

Documentation

Showing up to 5 results
|